FW9318 Weather Reports


time (UTC)temp
C
wind
direction
speed
KPH
gust
KPH
rain 1hr
cm
rain 24hr
cm
rain mn
cm
humidity
%
barometer
mb
20260505153050 10 0 0.0 1.6 0.00 0.03 0.03 92 1016.7
20260505152535 10 0 0.0 1.6 0.00 0.03 0.03 92 1016.7
20260505152036 10 0 0.0 0.0 0.00 0.03 0.03 93 1016.7
20260505151544 10 0 0.0 0.0 0.03 0.03 0.03 92 1016.6
20260505151037 10 0 0.0 0.0 0.03 0.03 0.03 92 1016.6
20260505150536 10 0 0.0 0.0 0.03 0.03 0.03 92 1016.6
20260505140536 10 0 0.0 0.0 0.00 0.00 0.00 92 1015.9
20260505125036 10 0 0.0 0.0 0.00 0.00 0.00 92 1015.6
20260505124600 10 0 0.0 0.0 0.00 0.00 0.00 92 1015.6
20260505124036 10 0 0.0 0.0 0.00 0.00 0.00 92 1015.6
20260505123538 10 0 0.0 0.0 0.00 0.00 0.00 92 1015.6
20260505123059 10 0 0.0 0.0 0.00 0.00 0.00 92 1015.6
20260505122536 10 0 0.0 0.0 0.00 0.00 0.00 92 1015.6
20260505122036 10 0 0.0 0.0 0.00 0.00 0.00 92 1015.4
20260505121553 10 0 0.0 1.6 0.00 0.00 0.00 92 1015.6
20260505121036 10 0 0.0 1.6 0.00 0.00 0.00 92 1015.6
20260505120536 10 0 0.0 1.6 0.00 0.00 0.00 91 1015.6
20260505120109 10 0 0.0 1.6 0.00 0.00 0.00 91 1015.5
20260505115535 10 0 0.0 1.6 0.00 0.00 0.00 91 1015.5
20260505115036 10 0 0.0 1.6 0.00 0.00 0.00 91 1015.5
20260505114549 10 0 0.0 0.0 0.00 0.00 0.00 91 1015.4
20260505114036 10 0 0.0 1.6 0.00 0.00 0.00 91 1015.5
20260505113536 10 0 0.0 1.6 0.00 0.00 0.00 91 1015.5
20260505113051 10 0 0.0 1.6 0.00 0.00 0.00 90 1015.4
20260505112536 10 0 0.0 1.6 0.00 0.00 0.00 90 1015.5
20260505112036 10 0 0.0 1.6 0.00 0.00 0.00 90 1015.5
20260505111553 10 0 0.0 0.0 0.00 0.00 0.00 90 1015.4
20260505111036 10 0 0.0 1.6 0.00 0.00 0.00 90 1015.3
20260505110535 10 0 0.0 1.6 0.00 0.00 0.00 90 1015.3
20260505102036 10 0 0.0 1.6 0.00 0.00 0.00 90 1015.1
20260505101551 10 65 0.0 1.6 0.00 0.00 0.00 89 1015.1
20260505101036 10 0 0.0 1.6 0.00 0.00 0.00 90 1015.1
20260505100536 10 0 0.0 0.0 0.00 0.00 0.00 90 1015.1
20260505100053 10 0 0.0 0.0 0.00 0.00 0.00 89 1015.1
20260505095536 10 0 0.0 4.8 0.00 0.00 0.00 90 1015.1
20260505095035 10 0 0.0 4.8 0.00 0.00 0.00 90 1015.1
20260505094553 10 0 0.0 3.2 0.00 0.00 0.00 89 1015.1
20260505094039 11 63 0.0 3.2 0.00 0.00 0.00 89 1015.1
20260505093537 11 0 0.0 3.2 0.00 0.00 0.00 89 1015.2
20260505093054 11 0 0.0 3.2 0.00 0.00 0.00 89 1015.1
20260505092537 11 0 0.0 1.6 0.00 0.00 0.00 89 1014.9
20260505092036 11 0 0.0 1.6 0.00 0.00 0.00 89 1014.9
20260505091548 11 0 0.0 1.6 0.00 0.00 0.00 89 1014.9
20260505091036 11 0 0.0 1.6 0.00 0.00 0.00 89 1014.7
20260505090536 11 0 0.0 1.6 0.00 0.00 0.00 89 1014.7
20260505090051 11 0 0.0 1.6 0.00 0.00 0.00 89 1014.7
20260505085537 11 0 0.0 0.0 0.00 0.00 0.00 89 1014.7
20260505085036 10 0 0.0 1.6 0.00 0.00 0.00 89 1014.6
20260505084545 10 0 0.0 1.6 0.00 0.00 0.00 89 1014.7
20260505084035 10 0 0.0 1.6 0.00 0.00 0.00 89 1014.6
20260505083535 10 0 0.0 3.2 0.00 0.00 0.00 89 1014.5
20260505083048 10 0 0.0 3.2 0.00 0.00 0.00 89 1014.5
20260505082536 11 36 0.0 3.2 0.00 0.00 0.00 89 1014.6
20260505082036 11 0 0.0 1.6 0.00 0.00 0.00 89 1014.5
20260505081551 11 0 0.0 3.2 0.00 0.00 0.00 89 1014.6
20260505081036 11 50 0.0 3.2 0.00 0.00 0.00 89 1014.5
20260505080535 11 46 0.0 3.2 0.00 0.00 0.00 89 1014.6
20260505080054 11 0 0.0 4.8 0.00 0.00 0.00 89 1014.4
20260505075538 11 84 0.0 4.8 0.00 0.00 0.00 89 1014.5
20260505075035 11 54 0.0 3.2 0.00 0.00 0.00 89 1014.3
20260505074556 11 70 0.0 3.2 0.00 0.00 0.00 88 1014.4
20260505074035 11 44 0.0 1.6 0.00 0.00 0.00 88 1014.3
20260505073535 11 0 0.0 1.6 0.00 0.00 0.00 88 1014.2
20260505073102 11 0 0.0 1.6 0.00 0.00 0.00 88 1014.1
20260505072538 11 0 0.0 1.6 0.00 0.00 0.00 88 1014.1
20260505072037 11 0 0.0 1.6 0.00 0.00 0.00 88 1014.0
20260505071552 11 0 0.0 3.2 0.00 0.00 0.00 87 1013.9
20260505071037 11 41 0.0 3.2 0.00 0.00 0.00 88 1013.9
20260505070536 11 41 0.0 1.6 0.00 0.00 0.00 87 1013.9
20260505070046 11 0 0.0 1.6 0.00 0.00 0.00 87 1013.9
20260505065536 11 0 0.0 3.2 0.00 0.00 0.00 86 1013.9
20260505065035 11 0 0.0 6.4 0.00 0.00 0.00 86 1013.8
20260505064547 11 0 1.6 6.4 0.00 0.00 0.00 85 1013.8
20260505064035 11 0 0.0 3.2 0.00 0.00 0.00 85 1013.6
20260505063536 12 44 0.0 3.2 0.00 0.00 0.00 85 1013.6
20260505063049 12 0 0.0 3.2 0.00 0.00 0.00 85 1013.5
20260505062535 12 0 0.0 3.2 0.00 0.00 0.00 85 1013.4
20260505062035 12 48 0.0 3.2 0.00 0.00 0.00 84 1013.3
20260505061552 12 0 0.0 3.2 0.00 0.00 0.00 84 1013.3
20260505061036 12 0 0.0 1.6 0.00 0.00 0.00 84 1013.1
20260505060536 12 48 0.0 1.6 0.00 0.00 0.00 84 1013.2
20260505060048 12 0 0.0 4.8 0.00 0.00 0.00 83 1013.1
20260505055536 12 0 0.0 4.8 0.00 0.00 0.00 83 1013.0
20260505055036 12 49 0.0 3.2 0.00 0.00 0.00 83 1013.1
20260505054625 13 0 0.0 1.6 0.00 0.00 0.00 82 1013.1
20260505054035 13 0 0.0 1.6 0.00 0.00 0.00 82 1013.1
20260505053537 13 0 0.0 1.6 0.00 0.00 0.00 82 1013.0
20260505053103 13 44 0.0 1.6 0.00 0.00 0.00 82 1013.0
20260505052535 13 42 1.6 1.6 0.00 0.00 0.00 81 1013.0
20260505052035 13 51 0.0 1.6 0.00 0.00 0.00 81 1013.0
20260505051550 13 0 1.6 1.6 0.00 0.00 0.00 80 1012.9
20260505051036 13 46 0.0 1.6 0.00 0.00 0.00 80 1012.9
20260505050537 14 44 0.0 1.6 0.00 0.00 0.00 80 1012.9
20260505041541 16 44 1.6 3.2 0.00 0.00 0.00 75 1012.5
20260505041036 16 39 0.0 3.2 0.00 0.00 0.00 73 1012.4
20260505040536 16 57 0.0 6.4 0.00 0.00 0.00 75 1012.5
20260505040056 17 0 0.0 6.4 0.00 0.00 0.00 74 1012.3
20260505035537 17 51 1.6 4.8 0.00 0.00 0.00 73 1012.2
20260505035035 17 0 0.0 3.2 0.00 0.00 0.00 73 1012.2
20260505034549 17 0 0.0 6.4 0.00 0.00 0.00 73 1012.1
20260505034036 17 0 0.0 6.4 0.00 0.00 0.00 72 1012.0
20260505033536 18 0 0.0 6.4 0.00 0.00 0.00 73 1012.0
20260505033048 18 0 0.0 4.8 0.00 0.00 0.00 72 1012.0
20260505032535 18 0 0.0 1.6 0.00 0.00 0.00 71 1011.9
20260505032035 18 0 0.0 1.6 0.00 0.00 0.00 72 1011.8
20260505031557 19 73 0.0 0.0 0.00 0.00 0.00 73 1011.8
20260505031035 19 0 0.0 1.6 0.00 0.00 0.00 73 1011.6
20260505030537 19 0 0.0 3.2 0.00 0.00 0.00 73 1011.6
20260505030052 19 0 0.0 3.2 0.00 0.00 0.00 71 1011.6
20260505025536 19 0 0.0 3.2 0.00 0.00 0.00 72 1011.5
20260505025036 19 213 0.0 3.2 0.00 0.00 0.00 72 1011.5
20260505024548 20 0 0.0 3.2 0.00 0.00 0.00 72 1011.4
20260505024038 20 0 0.0 3.2 0.00 0.00 0.00 71 1011.4
20260505023536 20 0 0.0 4.8 0.00 0.00 0.00 71 1011.3
20260505023056 20 0 0.0 4.8 0.00 0.00 0.00 70 1011.3
20260505022536 20 0 0.0 4.8 0.00 0.00 0.00 70 1011.3
20260505022037 20 214 0.0 3.2 0.00 0.00 0.00 70 1011.4
20260505021550 20 0 0.0 4.8 0.00 0.00 0.00 68 1011.4
20260505021036 20 237 0.0 4.8 0.00 0.00 0.00 68 1011.4
20260505020537 20 0 1.6 4.8 0.00 0.00 0.00 69 1011.3
20260505020050 20 0 0.0 6.4 0.00 0.00 0.00 69 1011.4
20260505015537 21 0 1.6 6.4 0.00 0.00 0.00 70 1011.4
20260505015037 20 226 0.0 6.4 0.00 0.00 0.00 69 1011.3
20260505014544 20 208 0.0 4.8 0.00 0.00 0.00 69 1011.4
20260505014036 20 0 0.0 8.0 0.00 0.00 0.00 69 1011.4
20260505013536 20 0 0.0 8.0 0.00 0.00 0.00 67 1011.3
20260505013106 21 240 0.0 4.8 0.00 0.00 0.00 68 1011.4
20260505012535 21 0 0.0 8.0 0.00 0.00 0.00 67 1011.5
20260505012036 21 0 1.6 8.0 0.00 0.00 0.00 67 1011.4
20260505011551 21 0 0.0 8.0 0.00 0.00 0.00 68 1011.5
20260505011037 21 222 4.8 8.0 0.00 0.00 0.00 66 1011.5
20260505010537 21 0 1.6 8.0 0.00 0.00 0.00 68 1011.5
20260505010049 21 0 1.6 8.0 0.00 0.00 0.00 68 1011.6
20260505005536 21 0 0.0 9.7 0.00 0.00 0.00 68 1011.5
20260505005037 21 234 3.2 9.7 0.00 0.00 0.00 69 1011.7
20260505004555 21 253 1.6 8.0 0.00 0.00 0.00 67 1011.7
20260505004037 21 0 0.0 12.9 0.00 0.00 0.00 65 1011.7
20260505003535 21 219 4.8 12.9 0.00 0.00 0.00 65 1011.6
20260505003047 21 226 0.0 6.4 0.00 0.00 0.00 68 1011.6
20260505002538 21 0 1.6 8.0 0.00 0.00 0.00 68 1011.6
20260505002036 21 0 1.6 8.0 0.00 0.00 0.00 67 1011.7
20260505001551 21 0 0.0 4.8 0.00 0.00 0.00 66 1011.6
20260505001035 21 244 0.0 9.7 0.00 0.00 0.00 66 1011.6
20260505000536 21 219 1.6 9.7 0.00 0.00 0.00 66 1011.7
20260505000107 21 222 1.6 6.4 0.00 0.00 0.00 66 1011.8
20260504235536 21 231 0.0 8.0 0.00 0.00 0.00 66 1011.9
20260504235037 21 197 1.6 8.0 0.00 0.00 0.00 65 1011.9
20260504234548 21 195 0.0 8.0 0.00 0.00 0.00 66 1011.8
20260504234035 21 208 1.6 14.5 0.00 0.00 0.00 65 1011.9
20260504233536 21 229 6.4 14.5 0.00 0.00 0.00 65 1011.9
20260504233051 21 0 3.2 14.5 0.00 0.00 0.00 65 1011.8
20260504232536 21 226 1.6 8.0 0.00 0.00 0.00 65 1011.8
20260504232035 20 219 3.2 11.3 0.00 0.00 0.00 64 1011.9
20260504231545 20 0 1.6 11.3 0.00 0.00 0.00 65 1012.0
20260504231036 20 230 1.6 12.9 0.00 0.00 0.00 65 1012.0
20260504230539 20 240 1.6 12.9 0.00 0.00 0.00 64 1012.1
20260504230100 20 0 0.0 9.7 0.00 0.00 0.00 68 1012.1
20260504225536 20 0 3.2 11.3 0.00 0.00 0.00 64 1012.2
20260504225036 20 238 3.2 11.3 0.00 0.00 0.00 66 1012.2
20260504224549 20 0 0.0 1.6 0.00 0.00 0.00 65 1012.3
20260504224035 20 0 0.0 0.0 0.00 0.00 0.00 66 1012.2
20260504223535 20 0 0.0 0.0 0.00 0.00 0.00 66 1012.3
20260504223049 20 0 0.0 8.0 0.00 0.00 0.00 67 1012.5
20260504222536 20 0 1.6 8.0 0.00 0.00 0.00 69 1012.4
20260504222036 20 226 0.0 8.0 0.00 0.00 0.00 65 1012.6
20260504221557 20 0 0.0 0.0 0.00 0.00 0.00 65 1012.7
20260504221037 20 0 0.0 0.0 0.00 0.00 0.00 66 1012.8
20260504220536 20 0 0.0 0.0 0.00 0.00 0.00 67 1012.9
20260504220058 20 0 0.0 6.4 0.00 0.00 0.00 66 1012.9
20260504215536 20 0 0.0 6.4 0.00 0.00 0.00 66 1012.9
20260504215036 20 0 0.0 0.0 0.00 0.00 0.00 66 1012.9
20260504214542 20 0 0.0 0.0 0.00 0.00 0.00 64 1013.0
20260504214036 20 0 0.0 0.0 0.00 0.00 0.00 65 1013.1
20260504213535 19 0 0.0 0.0 0.00 0.00 0.00 65 1013.1
20260504213046 19 0 0.0 0.0 0.00 0.00 0.00 66 1013.2
20260504212539 19 0 0.0 0.0 0.00 0.00 0.00 67 1013.2
20260504212036 19 0 0.0 0.0 0.00 0.00 0.00 68 1013.3
20260504211550 19 0 0.0 0.0 0.00 0.00 0.00 69 1013.4
20260504211035 18 0 0.0 0.0 0.00 0.00 0.00 67 1013.4
20260504210535 20 0 0.0 0.0 0.00 0.00 0.00 66 1013.5
20260504210051 19 0 0.0 0.0 0.00 0.00 0.00 68 1013.5
20260504205537 19 0 0.0 0.0 0.00 0.00 0.00 65 1013.5
20260504205036 20 0 0.0 0.0 0.00 0.00 0.00 64 1013.6
20260504204543 20 0 0.0 0.0 0.00 0.00 0.00 67 1013.6
20260504204037 19 0 0.0 0.0 0.00 0.00 0.00 68 1013.8
20260504203537 19 0 0.0 0.0 0.00 0.00 0.00 64 1013.7
20260504203103 18 0 0.0 0.0 0.00 0.00 0.00 71 1013.8
20260504202536 18 0 0.0 0.0 0.00 0.00 0.00 67 1013.8
20260504202036 18 0 0.0 0.0 0.00 0.00 0.00 70 1013.9
20260504201554 17 0 0.0 0.0 0.00 0.00 0.00 70 1013.9
20260504201036 18 0 0.0 0.0 0.00 0.00 0.00 69 1013.9
20260504200536 18 0 0.0 0.0 0.00 0.00 0.00 71 1013.9
20260504200050 18 0 0.0 0.0 0.00 0.00 0.00 66 1014.0
20260504195535 18 0 0.0 0.0 0.00 0.00 0.00 70 1014.1
20260504195035 18 0 0.0 0.0 0.00 0.00 0.00 69 1014.0
20260504194549 17 0 0.0 0.0 0.00 0.00 0.00 74 1014.1
20260504194035 17 0 0.0 0.0 0.00 0.00 0.00 71 1014.2
20260504193535 17 0 0.0 0.0 0.00 0.00 0.00 71 1014.1
20260504193046 17 0 0.0 0.0 0.00 0.00 0.00 72 1014.1
20260504192536 17 0 0.0 0.0 0.00 0.00 0.00 72 1014.1
20260504192036 17 0 0.0 0.0 0.00 0.00 0.00 73 1014.3
20260504191548 16 0 0.0 0.0 0.00 0.00 0.00 75 1014.2
20260504191036 16 0 0.0 0.0 0.00 0.00 0.00 72 1014.2
20260504190535 16 0 0.0 0.0 0.00 0.00 0.00 75 1014.3
20260504190051 16 0 0.0 0.0 0.00 0.00 0.00 78 1014.3
20260504185535 15 0 0.0 0.0 0.00 0.00 0.00 77 1014.4
20260504185035 15 0 0.0 0.0 0.00 0.00 0.00 77 1014.3
20260504184546 15 0 0.0 0.0 0.00 0.00 0.00 78 1014.5
20260504184035 15 0 0.0 0.0 0.00 0.00 0.00 80 1014.5
20260504183537 15 0 0.0 0.0 0.00 0.00 0.00 76 1014.5
20260504183047 15 0 0.0 0.0 0.00 0.00 0.00 76 1014.4
20260504182536 15 0 0.0 0.0 0.00 0.00 0.00 76 1014.3
20260504182035 13 0 0.0 0.0 0.00 0.00 0.00 79 1014.4
20260504181555 14 0 0.0 0.0 0.00 0.00 0.00 79 1014.3
20260504181035 14 0 0.0 0.0 0.00 0.00 0.00 78 1014.2
20260504180536 14 0 0.0 0.0 0.00 0.00 0.00 80 1014.2
20260504180050 14 0 0.0 0.0 0.00 0.00 0.00 81 1014.3
20260504175535 13 0 0.0 0.0 0.00 0.00 0.00 81 1014.3
20260504175036 13 0 0.0 0.0 0.00 0.00 0.00 80 1014.3
20260504174554 13 0 0.0 0.0 0.00 0.00 0.00 78 1014.2
20260504174037 13 0 0.0 0.0 0.00 0.00 0.00 80 1014.3
20260504173536 13 0 0.0 0.0 0.00 0.00 0.00 79 1014.3
20260504173053 13 0 0.0 0.0 0.00 0.00 0.00 80 1014.3
20260504172535 13 0 0.0 0.0 0.00 0.00 0.00 80 1014.3
20260504172036 13 0 0.0 0.0 0.00 0.00 0.00 83 1014.2
20260504171551 13 0 0.0 0.0 0.00 0.00 0.00 81 1014.2
20260504171036 13 0 0.0 0.0 0.00 0.00 0.00 80 1014.1
20260504170536 13 0 0.0 0.0 0.00 0.00 0.00 80 1014.1